Terug naar catalogus

STARLINK-35890

ActiefCommunicatieVLEO
NORAD 66835·PAYLOAD·🇺🇸 United States

Gelanceerd Dec 2, 2025 vanaf Vandenberg Space Force Base

Loading…

Volgende Passages (komende 24 uur)

TLE

VersSource: CelesTrak SupGP

Epoch: Sep 15, 2026, 03:02 UTC

1 66835C 25280Q   26258.12687500 -.00024647  00000+0 -20656-2 0  2580
2 66835  70.0009 216.8280 0003122 271.1004   9.2208 14.98341111    11

Volg STARLINK-35890 in realtime met AllMySat

Download on the App Store